This demonstration page uses our WeatherBlox Daily Observations layout. Learn more.

Left ArrowRight Arrow

Hourly Observations for May 12, 2017

Temp ( °F °C ) Dew Point ( °F °C ) Humidity (%) Winds ( mph kmh ) Pressure ( in mb ) Visibility ( mi km ) Precip ( " mm )
12:54 am 00:54 Clear 49 9.4 42 5.6 77 77 N 6 9 30.06 1018 10 16.0934 0 0
1:54 am 01:54 Clear 50 10 41 5 71 71 NNW 6 9 30.07 1018 10 16.0934 0 0
2:54 am 02:54 Clear 45 7.2 39 3.9 80 80 NNW 5 7 30.08 1019 10 16.0934 0 0
3:54 am 03:54 Clear 46 7.8 39 3.9 77 77 Calm 30.07 1018 10 16.0934 0 0
4:54 am 04:54 Clear 42 5.6 38 3.3 85 85 N 5 7 30.07 1018 10 16.0934 0 0
5:54 am 05:54 Clear 43 6.1 38 3.3 82 82 N 6 9 30.08 1019 10 16.0934 0 0
6:54 am 06:54 Sunny 45 7.2 39 3.9 80 80 N 9 15 30.09 1019 10 16.0934 0 0
7:54 am 07:54 Sunny 52 11.1 42 5.6 69 69 N 5 7 30.09 1019 10 16.0934 0 0
8:54 am 08:54 Sunny 60 15.6 41 5 50 50 NE 7 11 30.09 1019 10 16.0934 0 0
9:54 am 09:54 Sunny 64 17.8 39 3.9 40 40 NE 8 13 30.09 1019 10 16.0934 0 0
10:54 am 10:54 Sunny 67 19.4 38 3.3 35 35 NE 7 11 30.08 1019 10 16.0934 0 0
11:54 am 11:54 Sunny 70 21.1 39 3.9 32 32 NE 12 19 30.08 1019 10 16.0934 0 0
12:54 pm 12:54 Sunny 71 21.7 40 4.4 32 32 E 8 13 30.07 1018 10 16.0934 0 0
1:54 pm 13:54 Sunny 74 23.3 44 6.7 34 34 NE 12 19 30.05 1018 10 16.0934 0 0
2:54 pm 14:54 Sunny 74 23.3 42 5.6 32 32 ENE 10 17 30.04 1017 10 16.0934 0 0
3:54 pm 15:54 Sunny 76 24.4 43 6.1 31 31 NE 10 17 30.01 1016 10 16.0934 0 0
4:54 pm 16:54 Sunny 75 23.9 43 6.1 32 32 ENE 12 19 30.01 1016 10 16.0934 0 0
5:54 pm 17:54 Sunny 75 23.9 43 6.1 32 32 E 6 9 30 1016 10 16.0934 0 0
6:54 pm 18:54 Sunny 74 23.3 43 6.1 33 33 E 5 7 29.99 1016 10 16.0934 0 0
7:54 pm 19:54 Sunny 70 21.1 44 6.7 39 39 ENE 7 11 29.98 1015 10 16.0934 0 0
8:54 pm 20:54 Clear 68 20 42 5.6 39 39 E 6 9 29.98 1015 10 16.0934 0 0
9:54 pm 21:54 Clear 66 18.9 44 6.7 45 45 Calm 29.98 1015 10 16.0934 0 0
10:54 pm 22:54 Clear 59 15 46 7.8 62 62 Calm 29.99 1016 10 16.0934 0 0
11:54 pm 23:54 Clear 55 12.8 46 7.8 72 72 Calm 29.99 1016 10 16.0934 0 0

Powered by AerisWeather